User: anonymous   Login
Location: Castifao
(42.5040°N, 9.1124°E)
Time: 20:19:17
(UTC+00:00)
Language:

ADEOS Rocket - Orbit

View from above orbital plane
View from above orbital plane
View from above satellite
View from above satellite

Ground track
Ground track

The orbit data is extracted from the following two-line orbital elements,

1 24279U 96046C   20090.82027137 -.00000009 +00000-0 +35017-4 0  9990
2 24279 098.6933 282.6314 0299473 213.9848 155.3641 13.47138575160982
Epoch (UTC): 30 March 2020 19:41:11
Eccentricity: 0.0299473
inclination: 98.6933°
perigee height: 859 km
apogee height: 1306 km
right ascension of ascending node: 282.6314°
argument of perigee: 213.9848°
revolutions per day: 13.47138575
mean anomaly at epoch: 155.3641°
orbit number at epoch: 16098

The dashed part of the orbit path shows where the satellite is in the earth's shadow,  

DLR